Location: Holyhead Bay
(53.3667°N, 4.6667°W)
Time: 06:17:48
(UTC+00:00)

ADEOS Rocket - Pass Details

Date: 21 April 2021
Orbit: 859 x 1306 km, 98.7° (Epoch: 12 May)

Event Time Altitude Azimuth Distance (km) Brightness Sun altitude
Exits shadow 02:21:30 - 151° (SSE) 3,432 5.6 -19.6°
Reaches altitude 10° 02:23:00 10° 150° (SSE) 2,876 5.2 -19.4°
Maximum altitude 02:29:32 71° 68° (ENE) 1,209 3.6 -18.9°
Drops below altitude 10° 02:36:50 10° 347° (NNW) 3,198 6.2 -18.3°
Sets 02:39:36 0° 346° (NNW) 4,214 6.9 -18.0°
